Location: Batignolles
(48.8869°N, 2.3204°E)
Time: 04:51:10
(UTC+00:00)

Daily predictions for brighter satellites

Satellite Brightness Start Highest point End
(mag) Time Altitude Azimuth Time Altitude Azimuth Time Altitude Azimuth
Cosmos 2237 Rocket 3.2 00:01:09 10° NW 00:06:02 30° WSW 00:06:31 30° WSW
Cosmos 1745 Rocket 4.4 00:04:27 37° SW 00:06:40 54° WNW 00:12:52 10° N
Okean 1-7 3.3 00:04:46 10° NNW 00:08:49 55° W 00:08:49 55° W
Cosmos 1378 4.0 00:05:52 10° NNW 00:08:48 43° WNW 00:08:48 43° WNW
SL-8 R/B 4.4 00:12:09 39° ESE 00:12:09 39° ESE 00:15:26 10° E
Cosmos 2227 Rocket 2.4 00:11:26 42° SW 00:13:17 66° WNW 00:18:57 10° NNE
ATLAS CENTAUR R/B 3.3 00:15:07 18° E 00:15:07 18° E 00:16:52 10° ENE
Cosmos 2251 Rocket 3.5 00:15:14 57° SSE 00:15:59 64° ESE 00:21:16 10° NNE
Cosmos 1241 Rocket 4.5 00:16:54 48° SSW 00:18:49 75° ESE 00:25:19 10° NE
Cosmos 1340 Rocket 3.9 00:23:33 34° WNW 00:23:39 34° WNW 00:27:17 10° N
Cosmos 2263 Rocket 3.1 00:22:51 32° SE 00:23:49 34° ESE 00:28:54 10° NE
ARGOS Delta rocket 4.2 00:21:40 10° NNE 00:26:03 45° E 00:26:27 43° ESE
ASTEX 1 3.7 00:27:54 48° SE 00:28:59 60° E 00:33:51 10° N
CZ-4C R/B 2.9 00:25:02 10° NW 00:32:12 81° SW 00:37:07 27° SSE
Cosmos 1869 Rocket 3.6 00:32:32 64° WSW 00:32:52 67° WNW 00:37:20 10° N
Cosmos 2184 Rocket 4.2 00:33:01 41° SSE 00:35:07 62° E 00:41:22 10° NNE
SL-16 R/B 2.5 00:31:14 10° NW 00:36:38 47° WSW 00:37:14 45° SW
Cosmos 2154 Rocket 4.5 00:41:38 34° SE 00:44:01 50° E 00:50:01 10° NNE
Timation 2 Rocket 4.3 00:41:33 33° WSW 00:44:08 57° NW 00:50:17 10° NNE
Cosmos 1743 2.9 00:46:30 62° WNW 00:46:30 62° WNW 00:50:05 10° N
Cosmos 407 Rocket 3.8 00:46:25 45° SE 00:47:28 53° ESE 00:52:33 10° NNE
Cosmos 2074 Rocket 3.9 00:46:52 45° S 00:48:56 79° E 00:55:10 10° NNE
Cosmos 1461 2.9 00:49:08 70° SW 00:49:38 84° NW 00:54:04 10° NE
USA 267 3.7 00:50:10 10° NE 00:56:35 59° NNW 01:02:59 10° W
Lacrosse 5 3.0 00:52:05 11° W 00:56:44 43° NNW 01:01:34 10° NE
SL-24 R/B - RUBIN 2 3.7 00:52:14 10° NW 00:57:23 82° NE 00:59:02 41° SE
Cosmos 1674 Rocket 3.7 00:54:49 10° N 00:59:16 68° ENE 01:00:13 52° SE
Cosmos 1975 3.1 00:59:47 53° ESE 01:00:09 56° E 01:04:10 10° NNE
Meteor 1-21 4.4 00:57:12 10° N 01:03:01 73° ENE 01:05:37 34° SSE
CZ-2D R/B 3.0 00:58:03 10° NNE 01:03:13 42° E 01:05:14 30° SE
Cosmos 1356 Rocket 4.0 01:03:45 41° ESE 01:04:12 43° E 01:08:00 10° NNE
NOSS 3-4 (A) 4.3 00:58:55 10° NW 01:05:39 60° NE 01:13:12 10° ESE
NOSS 3-4 (C) 4.3 00:59:01 10° NW 01:05:45 60° NE 01:13:18 10° ESE
Geosat 4.3 01:06:20 46° SW 01:06:41 46° WSW 01:11:33 10° NW
Cosmos 1943 3.2 01:02:13 10° NNW 01:07:58 86° ENE 01:10:48 32° SSE
CZ-4 R/B 3.9 01:06:10 10° NNE 01:11:13 89° ESE 01:12:33 51° SSW
Helios 1A 2.8 01:12:44 67° SSW 01:13:09 74° WSW 01:17:22 10° NNW
USA 290 3.8 01:10:31 10° N 01:13:30 33° ENE 01:14:28 27° E
EO 1 Del DPAF 3.7 01:11:01 10° N 01:14:36 46° WNW 01:14:44 46° WNW
Cosmos 1378 Rocket 3.4 01:10:20 10° N 01:14:43 85° E 01:15:33 58° SSE
ATLAS 2AS CENTAUR R/B 4.0 01:07:40 10° NW 01:14:47 44° NNE 01:21:22 10° ESE
Okean 2 3.4 01:11:04 10° N 01:15:17 82° E 01:15:58 61° SSE
SL-16 R/B 2.7 01:11:43 25° SSE 01:15:30 73° ENE 01:21:42 10° NNW
NOSS 3-3 (A) 3.8 01:13:43 43° SSW 01:15:50 80° SE 01:22:30 10° NE
NOSS 3-3 (C) 3.8 01:13:51 43° SSW 01:15:57 80° SE 01:22:35 10° NE
MOZ.5/SAFIR/RUBIN 5/SL-8 3.7 01:15:33 54° SSW 01:16:27 69° WSW 01:21:09 10° NNW
Cosmos 1674 4.4 01:14:00 10° N 01:17:23 29° ENE 01:19:17 19° ESE
Cosmos 1140 Rocket 3.4 01:16:11 49° SSW 01:17:39 85° ESE 01:22:55 10° NNE
Iridium 4 Rocket 3.9 01:15:47 10° N 01:21:34 74° E 01:24:25 32° SSE
Cosmos 44 4.0 01:16:58 10° NW 01:21:36 37° WSW 01:21:36 37° WSW
Cosmos 1707 2.7 01:18:39 10° N 01:22:30 74° E 01:23:04 60° SE
Cosmos 1238 Rocket 2.6 01:23:58 65° SSE 01:24:23 74° E 01:28:40 10° NNE
Cosmos 2221 Rocket 4.4 01:26:48 10° NNW 01:30:58 35° W 01:31:22 35° WSW
USA 234 4.2 01:32:48 25° WSW 01:32:48 25° WSW 01:37:31 10° WNW
Cosmos 1844 Rocket 4.2 01:30:42 18° SE 01:33:37 27° ESE 01:38:19 10° NE
Resurs 1-4 Rocket 2.1 01:29:54 10° NNE 01:35:14 78° ESE 01:37:21 37° S
Cosmos 1733 Rocket 3.6 01:35:04 39° WSW 01:35:58 44° WNW 01:40:15 10° N
Cosmos 1908 Rocket 3.5 01:36:28 47° S 01:37:39 76° E 01:42:02 10° NNE
Nadezhda 3 Rocket 4.2 01:39:31 10° NNW 01:45:42 55° W 01:48:26 32° SSW
Cosmos 1190 Rocket 4.1 01:45:54 37° SW 01:47:59 69° WNW 01:53:19 10° NNE
Cosmos 1818 3.5 01:44:53 10° NW 01:50:23 76° SW 01:55:45 10° SSE
ATLAS CENTAUR R/B 1.8 01:51:14 36° W 01:52:25 50° NW 01:56:25 10° NNE
ADEOS Rocket 2.7 01:49:25 27° S 01:52:30 78° WSW 01:58:06 10° NNW
SL-8 R/B 3.6 01:50:05 22° W 01:53:09 86° S 01:57:59 10° E
Cosmos 962 Rocket 4.5 01:53:34 30° SSW 01:57:01 83° W 02:03:26 10° N
ADEOS II 2.4 01:52:29 10° NNE 01:57:43 60° ESE 02:00:45 25° S
Cosmos 1954 Rocket 4.0 01:55:23 35° SSW 01:57:44 87° WNW 02:03:05 10° NNE
Cosmos 2227 Rocket 4.4 01:54:49 10° WNW 01:58:29 17° NW 02:02:10 10° N
Cosmos 2341 Rocket 3.9 01:56:31 28° S 02:00:02 89° W 02:06:17 10° N
UNK 4.0 02:02:32 36° SSW 02:04:05 51° W 02:08:39 10° NNW
Cosmos 1603 4.3 01:59:42 10° NW 02:04:49 37° WSW 02:06:29 30° SW
Cosmos 1346 Rocket 4.4 02:01:54 10° N 02:05:29 33° ENE 02:09:02 10° SE
Cosmos 841 Rocket 4.4 02:01:20 10° NNW 02:06:28 50° ENE 02:11:35 10° SE
Cosmos 2263 Rocket 2.8 02:04:32 24° WSW 02:07:36 47° NW 02:13:07 10° NNE
In-Cosmos 22 4.4 02:02:42 10° NNW 02:08:19 54° W 02:11:10 28° SSW
Cosmos 1626 2.4 02:05:36 10° N 02:09:17 65° ENE 02:11:26 23° SSE
Meteor 1-28 Rocket 3.3 02:08:03 24° SSE 02:10:13 72° ENE 02:13:56 10° N
Orbus 7S? 4.3 02:09:58 25° SW 02:14:28 66° SE 02:18:17 10° ENE
AQUA 3.8 02:11:16 10° N 02:16:01 71° WNW 02:18:23 29° SSW
Cosmos 1763 Rocket 3.5 02:12:37 10° NNW 02:17:56 69° WSW 02:22:21 15° S
Iridium 45 4.5 02:16:58 34° S 02:18:23 85° E 02:22:02 10° N
Cosmos 2344 3.7 02:15:00 22° SW 02:20:10 71° NW 02:28:17 10° NE
CZ-4C R/B 4.1 02:14:33 10° WNW 02:20:13 23° WSW 02:22:12 21° SW
Cosmos 1782 Rocket 3.5 02:19:27 31° SSW 02:21:28 70° W 02:25:54 10° N
MINOTAUR 4 R/B 3.9 02:21:43 29° S 02:23:23 73° WSW 02:26:59 10° NNW
Cosmos 44 Rocket 3.6 02:18:14 10° NW 02:23:25 72° NE 02:28:25 10° SE
Landsat 4 4.0 02:21:52 10° NNE 02:25:33 60° ESE 02:27:39 23° S
Helios 1B rocket 2.7 02:22:29 10° N 02:26:32 55° WNW 02:28:23 29° SW
Cosmos 540 Rocket 3.5 02:24:24 10° NNW 02:29:36 87° ENE 02:34:47 10° SSE
IDEFIX/ARIANE 42P 2.8 02:27:05 10° NNE 02:32:16 68° ESE 02:36:26 16° S
Meteor 1-15 Rocket 4.5 02:28:54 16° S 02:33:43 73° E 02:39:31 10° NNE
Cosmos 1340 3.5 02:30:26 10° NNW 02:33:49 33° W 02:34:46 28° SW
Cosmos 1959 Rocket 4.5 02:32:06 20° SSW 02:36:33 75° W 02:42:50 10° N
MSX 4.3 02:30:59 10° NNE 02:36:39 57° E 02:42:08 11° S
Cosmos 1184 Rocket 4.3 02:35:43 10° N 02:38:42 35° ENE 02:41:40 10° SE
USA 267 4.4 02:32:54 10° ENE 02:39:01 44° N 02:45:08 10° WNW
Meteor 1-29 2.8 02:35:48 10° N 02:39:07 69° WNW 02:40:40 29° SSW
Cosmos 1536 Rocket 4.2 02:35:56 10° N 02:40:17 57° ENE 02:44:38 10° SSE
Lacrosse 5 3.6 02:36:04 10° WNW 02:40:39 33° N 02:45:14 10° ENE
CZ-2D R/B 3.1 02:38:19 10° N 02:43:09 34° WNW 02:46:33 17° WSW
IRS-1D 3.5 02:39:01 10° NNE 02:44:02 77° WNW 02:47:47 18° SSW
Okean 2 Rocket 3.4 02:40:27 14° S 02:44:15 69° E 02:48:45 10° NNE
Cosmos 1300 Rocket 3.5 02:44:10 19° SSW 02:47:16 82° W 02:51:43 10° N
SL-8 Rocket 4.3 02:43:05 20° SW 02:47:18 52° WNW 02:53:19 10° N
NPP 4.5 02:42:28 10° N 02:47:23 37° WNW 02:50:53 18° WSW
USA 290 4.1 02:45:29 10° WNW 02:47:11 16° W 02:47:11 16° W
Cosmos 1833 Rocket 4.3 02:42:36 10° NNW 02:47:49 37° NE 02:53:00 10° ESE
Cosmos 1733 3.3 02:47:14 23° SSW 02:49:29 61° WNW 02:53:16 10° N
BREEZE-M DEB (TANK) 2.5 02:48:19 17° W 02:50:01 78° N 02:54:25 10° E
IKONOS-2 4.4 02:46:49 10° S 02:51:04 78° WSW 02:55:22 10° NNW
DELTA 2 DEB (DPAF) 4.3 02:47:30 15° S 02:51:05 53° W 02:55:27 10° NNW
Cosmos 1674 4.0 02:49:38 10° NW 02:52:45 24° W 02:54:02 20° WSW
CZ-4B R/B 4.5 02:51:12 10° NNE 02:55:45 40° E 03:00:12 10° S
Cosmos 2366 rocket 4.3 02:51:03 17° SSW 02:55:53 56° WNW 03:02:08 10° N
NOSS 3-4 (A) 4.2 02:49:58 10° NW 02:56:32 42° WSW 03:03:46 10° S
NOSS 3-4 (C) 4.2 02:50:04 10° NW 02:56:39 43° WSW 03:03:54 10° S
CZ-2C R/B 4.1 02:53:02 10° NE 02:57:03 29° E 03:01:07 10° SSE
Cosmos 1741 Rocket 4.1 02:55:31 17° SSW 02:59:33 73° WNW 03:04:53 10° NNE
SL-16 R/B 3.8 02:56:49 16° SW 02:59:43 22° W 03:04:25 10° NW
BREEZE-M DEB (TANK) 3.4 02:58:46 20° WSW 02:59:51 25° SSW 03:02:22 10° SSE
Cosmos 1570 Rocket 4.1 02:54:35 10° NNW 02:59:58 84° ENE 03:05:20 10° SSE
Cosmos 1025 Rocket 3.4 02:56:44 10° NNW 03:00:53 46° W 03:04:31 13° SSW
Cosmos 1975 Rocket 4.1 02:57:26 10° NNW 03:01:09 27° W 03:03:28 17° SW
Cosmos 1805 4.0 03:00:51 19° SW 03:03:11 37° WNW 03:06:52 10° N
Cosmos 1400 Rocket 3.6 03:01:20 19° SW 03:03:41 37° WNW 03:07:25 10° N
Sich 1 Rocket 3.8 03:01:31 17° SSW 03:04:50 54° WNW 03:09:15 10° N
Meteor 2-5 Rocket 3.8 02:59:03 10° NNW 03:04:57 74° W 03:10:42 10° S
Cosmos 2151 Rocket 3.6 03:01:05 11° S 03:05:15 89° ESE 03:09:45 10° N
Cosmos 1726 2.7 03:02:17 10° S 03:05:52 56° E 03:09:31 10° NNE
ATLAS 2AS CENTAUR R/B 2.7 02:58:55 10° NW 03:06:08 64° WSW 03:12:46 10° SSE
Cosmos 1844 3.7 03:02:41 16° SSW 03:07:16 78° WNW 03:12:54 10° NNE
Milstar 3 4.4 03:07:58 11° SSW 03:10:45 14° S 03:14:05 10° SSE
BREEZE-M DEB (TANK) 2.2 03:10:20 18° WSW 03:11:59 73° SSE 03:14:30 10° E
X-37B 2.5 03:11:51 14° SSW 03:13:31 19° SSE 03:15:53 10° ESE
Cosmos 1867 3.6 03:09:33 15° SW 03:14:10 80° NW 03:19:42 10° NE
Resurs 1-4 Rocket 3.8 03:10:46 10° NNW 03:14:28 20° WNW 03:18:09 10° W
FALCON 9 DEB 3.9 03:14:21 15° SSW 03:16:50 40° SE 03:20:05 10° ENE
Cosmos 1844 Rocket 3.0 03:12:22 14° SW 03:17:10 57° WNW 03:22:47 10° NNE
CBERS-1 4.4 03:12:35 10° N 03:17:34 52° WNW 03:22:12 12° SW
Cosmos 1315 Rocket 2.8 03:19:06 10° SSW 03:23:08 71° WNW 03:27:09 10° N
Cosmos 1934 Rocket 4.4 03:17:23 10° S 03:23:31 68° E 03:29:47 10° NNE
Okean 1 Rocket 3.3 03:21:29 10° S 03:25:53 73° E 03:30:23 10° NNE
SL-24 R/B 4.1 03:21:35 10° S 03:26:21 77° WSW 03:30:32 10° NNW
Cosmos 2278 Rocket 3.5 03:23:20 10° S 03:28:28 37° ESE 03:33:38 10° NE
IRS-P3 4.2 03:23:48 10° NNE 03:29:09 72° WNW 03:34:28 10° SSW
Aureole 1 Rocket 4.3 03:23:01 10° SSW 03:29:22 80° WNW 03:37:24 10° NNE
SL-08 R/B 3.4 03:25:04 10° S 03:30:00 67° WSW 03:34:55 10° NNW
ERS-1 4.5 03:27:14 10° NNE 03:32:14 82° WNW 03:37:11 10° SSW
ATLAS CENTAUR R/B 3.8 03:30:03 10° NW 03:32:16 14° NNW 03:34:34 10° NNE
SOZ 4.5 03:30:33 10° WNW 03:32:51 47° SSW 03:35:22 10° SE
Meteor 1-22 Rocket 4.3 03:29:28 10° SSW 03:35:00 63° WNW 03:40:22 10° N
SL-8 R/B 3.7 03:30:53 10° W 03:35:39 66° SSW 03:40:26 10° ESE
ADEOS II 3.5 03:32:52 10° N 03:37:01 24° WNW 03:41:09 10° WSW
CZ-4C R/B 4.4 03:34:58 10° SSW 03:38:46 30° W 03:42:41 10° NNW
Cosmos 1346 Rocket 4.1 03:38:36 10° NW 03:41:39 22° W 03:44:41 10° SW
BREEZE-M DEB (TANK) 4.4 03:20:43 10° WNW 03:43:20 70° SSW 03:48:22 10° SE
Cosmos 1626 4.3 03:43:10 10° WNW 03:43:56 11° W 03:44:40 10° W
Cosmos 1441 Rocket 3.2 03:40:12 10° NNW 03:44:08 68° W 03:48:04 10° S
Cosmos 1470 2.9 03:40:33 10° SSW 03:44:21 55° WNW 03:48:12 10° N
BREEZE-M DEB (TANK) 2.8 03:38:15 10° W 03:44:46 86° N 03:47:19 10° E
MOS 1 Rocket 3.9 03:39:59 10° SSE 03:45:17 76° ENE 03:50:45 10° N
Cosmos 841 Rocket 4.5 03:43:43 10° NW 03:48:04 26° W 03:52:23 10° SSW
DNEPR-1 R/B 4.4 03:44:21 10° WSW 03:49:09 43° NW 03:53:24 10° NNE
ARIANE 5 R/B 2.8 03:45:31 10° N 03:50:37 58° WNW 03:55:44 10° SSW
